When you browse on this site, cookies collect data to enhance your experience and personalize the content and advertising you see.
Visit our Privacy Policy to learn more. By continuing to use the site, you agree to this use of cookies and data.
  • In Austria
  • List of Countries
  • For 7 days
  • Water Temperature
  • Satellite Maps
  • Weather Map
  • News
  • Weather Widgets
  • user-avatar
    Login

    Hourly Weather Houston

    Today, 14 December, Friday

    Time Temperature Precipitation Wind Pressure Humidity
    00:00 +9°C° 0 mm 5 mps 755 mmHg 66%
    01:00 +9°C° 0 mm 5 mps 755 mmHg 68%
    02:00 +9°C° 0 mm 6 mps 755 mmHg 70%
    03:00 +9°C° 0 mm 6 mps 755 mmHg 72%
    04:00 +9°C° 0 mm 6 mps 755 mmHg 73%
    05:00 +9°C° 0 mm 6 mps 755 mmHg 75%
    06:00 +9°C° 0 mm 6 mps 755 mmHg 76%
    07:00 +9°C° 0 mm 7 mps 756 mmHg 76%
    08:00 +10°C° 0 mm 7 mps 757 mmHg 77%
    09:00 +10°C° 0 mm 8 mps 757 mmHg 77%
    10:00 +10°C° 0 mm 8 mps 758 mmHg 76%
    11:00 +11°C° 0 mm 9 mps 758 mmHg 74%
    12:00 +11°C° 0 mm 9 mps 758 mmHg 73%
    13:00 +11°C° 0 mm 9 mps 759 mmHg 73%
    14:00 +11°C° 0 mm 9 mps 759 mmHg 73%
    15:00 +11°C° 0 mm 9 mps 759 mmHg 73%
    16:00 +10°C° 0 mm 8 mps 759 mmHg 73%
    17:00 +10°C° 0 mm 8 mps 760 mmHg 74%
    18:00 +10°C° 0 mm 8 mps 760 mmHg 74%
    19:00 +10°C° 0 mm 7 mps 761 mmHg 75%
    20:00 +9°C° 0 mm 6 mps 761 mmHg 76%
    21:00 +9°C° 0 mm 5 mps 762 mmHg 76%
    22:00 +9°C° 0 mm 5 mps 762 mmHg 76%
    23:00 +9°C° 0 mm 5 mps 762 mmHg 76%

    Tomorrow, 15 December, Saturday

    Time Temperature Precipitation Wind Pressure Humidity
    00:00 +9°C° 0 mm 5 mps 763 mmHg 76%
    01:00 +9°C° 0 mm 5 mps 763 mmHg 75%
    02:00 +8°C° 0 mm 5 mps 763 mmHg 75%
    03:00 +8°C° 0 mm 4 mps 763 mmHg 74%
    04:00 +8°C° 0 mm 4 mps 763 mmHg 71%
    05:00 +7°C° 0 mm 5 mps 764 mmHg 69%
    06:00 +7°C° 0 mm 5 mps 764 mmHg 66%
    07:00 +7°C° 0 mm 5 mps 764 mmHg 64%
    08:00 +7°C° 0 mm 5 mps 765 mmHg 62%
    09:00 +8°C° 0 mm 5 mps 765 mmHg 60%
    10:00 +9°C° 0 mm 5 mps 765 mmHg 58%
    11:00 +12°C° 0 mm 5 mps 765 mmHg 57%
    12:00 +13°C° 0 mm 5 mps 765 mmHg 56%
    13:00 +14°C° 0 mm 5 mps 765 mmHg 56%
    14:00 +15°C° 0 mm 5 mps 764 mmHg 56%
    15:00 +17°C° 0 mm 4 mps 764 mmHg 56%
    16:00 +15°C° 0 mm 4 mps 764 mmHg 59%
    17:00 +14°C° 0 mm 3 mps 765 mmHg 63%
    18:00 +13°C° 0 mm 3 mps 765 mmHg 67%
    19:00 +12°C° 0 mm 3 mps 766 mmHg 67%
    20:00 +12°C° 0 mm 3 mps 766 mmHg 68%
    21:00 +11°C° 0 mm 3 mps 767 mmHg 69%
    22:00 +11°C° 0 mm 3 mps 767 mmHg 68%
    23:00 +10°C° 0 mm 2 mps 767 mmHg 68%

    Day after tomorrow, 16 December, Sunday

    Time Temperature Precipitation Wind Pressure Humidity
    00:00 +10°C° 0 mm 2 mps 767 mmHg 68%
    01:00 +9°C° 0 mm 2 mps 767 mmHg 67%
    02:00 +9°C° 0 mm 2 mps 767 mmHg 67%
    03:00 +9°C° 0 mm 1 mps 767 mmHg 67%
    04:00 +9°C° 0 mm 1 mps 767 mmHg 66%
    05:00 +9°C° 0 mm 1 mps 767 mmHg 66%
    06:00 +9°C° 0 mm 1 mps 767 mmHg 65%
    07:00 +9°C° 0 mm 1 mps 768 mmHg 62%
    08:00 +10°C° 0 mm 1 mps 769 mmHg 60%
    09:00 +11°C° 0 mm 1 mps 769 mmHg 57%
    10:00 +13°C° 0 mm 1 mps 769 mmHg 51%
    11:00 +14°C° 0 mm 1 mps 769 mmHg 46%
    12:00 +16°C° 0 mm 1 mps 769 mmHg 40%
    13:00 +18°C° 0 mm 1 mps 768 mmHg 38%
    14:00 +19°C° 0 mm 1 mps 768 mmHg 37%
    15:00 +19°C° 0 mm 1 mps 767 mmHg 35%
    16:00 +18°C° 0 mm 1 mps 767 mmHg 38%
    17:00 +16°C° 0 mm 1 mps 767 mmHg 41%
    18:00 +15°C° 0 mm 1 mps 767 mmHg 45%
    19:00 +14°C° 0 mm 1 mps 768 mmHg 46%
    20:00 +14°C° 0 mm 1 mps 768 mmHg 48%
    21:00 +14°C° 0 mm 1 mps 769 mmHg 49%
    22:00 +14°C° 0 mm 1 mps 768 mmHg 50%
    23:00 +14°C° 0 mm 1 mps 768 mmHg 52%

    17 December, Monday

    Time Temperature Precipitation Wind Pressure Humidity
    00:00 +13°C° 0 mm 1 mps 768 mmHg 53%
    01:00 +13°C° 0 mm 1 mps 768 mmHg 54%
    02:00 +13°C° 0 mm 1 mps 768 mmHg 55%
    03:00 +13°C° 0 mm 1 mps 767 mmHg 56%
    04:00 +13°C° 0 mm 1 mps 767 mmHg 58%
    05:00 +12°C° 0 mm 1 mps 767 mmHg 60%
    06:00 +12°C° 0 mm 1 mps 767 mmHg 62%
    07:00 +12°C° 0 mm 1 mps 768 mmHg 63%
    08:00 +13°C° 0 mm 1 mps 768 mmHg 63%
    09:00 +13°C° 0 mm 1 mps 768 mmHg 64%
    10:00 +15°C° 0 mm 1 mps 768 mmHg 61%
    11:00 +16°C° 0 mm 1 mps 768 mmHg 57%
    12:00 +18°C° 0 mm 1 mps 768 mmHg 54%
    13:00 +19°C° 0 mm 1 mps 767 mmHg 53%
    14:00 +19°C° 0 mm 1 mps 766 mmHg 52%
    15:00 +20°C° 0 mm 1 mps 765 mmHg 51%
    16:00 +19°C° 0 mm 1 mps 765 mmHg 56%
    17:00 +18°C° 0 mm 1 mps 765 mmHg 60%
    18:00 +16°C° 0 mm 1 mps 765 mmHg 64%
    19:00 +16°C° 0 mm 1 mps 766 mmHg 67%
    20:00 +15°C° 0 mm 1 mps 766 mmHg 70%
    21:00 +15°C° 0 mm 1 mps 766 mmHg 72%
    22:00 +15°C° 0 mm 1 mps 766 mmHg 75%
    23:00 +15°C° 0 mm 1 mps 765 mmHg 78%

    18 December, Tuesday

    Time Temperature Precipitation Wind Pressure Humidity
    00:00 +14°C° 0 mm 2 mps 765 mmHg 81%
    01:00 +14°C° 0 mm 1 mps 765 mmHg 81%
    02:00 +15°C° 0 mm 1 mps 765 mmHg 82%
    03:00 +15°C° 0 mm 1 mps 764 mmHg 82%
    04:00 +14°C° 0 mm 1 mps 764 mmHg 82%
    05:00 +14°C° 0 mm 2 mps 764 mmHg 82%
    06:00 +14°C° 0 mm 2 mps 765 mmHg 83%
    07:00 +15°C° 0 mm 2 mps 765 mmHg 80%
    08:00 +14°C° 0 mm 3 mps 765 mmHg 78%
    09:00 +16°C° 0 mm 3 mps 765 mmHg 76%
    10:00 +17°C° 0 mm 3 mps 765 mmHg 72%
    11:00 +19°C° 0 mm 3 mps 765 mmHg 68%
    12:00 +20°C° 0 mm 3 mps 765 mmHg 64%
    13:00 +20°C° 0 mm 3 mps 764 mmHg 64%
    14:00 +20°C° 0 mm 3 mps 763 mmHg 64%
    15:00 +20°C° 0 mm 3 mps 763 mmHg 63%
    16:00 +19°C° 0 mm 3 mps 763 mmHg 67%
    17:00 +18°C° 0 mm 3 mps 763 mmHg 70%
    18:00 +17°C° 0 mm 3 mps 763 mmHg 74%
    19:00 +17°C° 0 mm 3 mps 764 mmHg 76%
    20:00 +16°C° 0 mm 3 mps 764 mmHg 79%
    21:00 +16°C° 0 mm 3 mps 764 mmHg 81%
    22:00 +14°C° 0 mm 3 mps 764 mmHg 82%
    23:00 +14°C° 0 mm 3 mps 764 mmHg 82%

    19 December, Wednesday

    Time Temperature Precipitation Wind Pressure Humidity
    00:00 +14°C° 0 mm 3 mps 764 mmHg 82%
    01:00 +14°C° 0 mm 3 mps 764 mmHg 81%
    02:00 +13°C° 0 mm 3 mps 764 mmHg 80%
    03:00 +13°C° 0 mm 3 mps 764 mmHg 79%
    04:00 +13°C° 0 mm 3 mps 764 mmHg 79%
    05:00 +13°C° 0 mm 3 mps 764 mmHg 79%
    06:00 +13°C° 0 mm 3 mps 764 mmHg 79%
    07:00 +13°C° 0 mm 3 mps 764 mmHg 78%
    08:00 +14°C° 0 mm 3 mps 765 mmHg 77%
    09:00 +14°C° 0 mm 3 mps 765 mmHg 76%
    10:00 +16°C° 0 mm 3 mps 765 mmHg 75%
    11:00 +17°C° 0 mm 3 mps 765 mmHg 73%
    12:00 +18°C° 0 mm 3 mps 764 mmHg 71%
    13:00 +18°C° 0.7 mm 2 mps 764 mmHg 74%
    14:00 +19°C° 0.7 mm 1 mps 764 mmHg 76%
    15:00 +18°C° 0.7 mm 1 mps 764 mmHg 79%
    16:00 +18°C° 0.4 mm 1 mps 764 mmHg 81%
    17:00 +16°C° 0.4 mm 1 mps 764 mmHg 84%
    18:00 +16°C° 0.4 mm 2 mps 764 mmHg 86%
    19:00 +16°C° 0 mm 2 mps 765 mmHg 86%
    20:00 +15°C° 0 mm 2 mps 765 mmHg 87%
    21:00 +15°C° 0 mm 2 mps 765 mmHg 88%
    22:00 +15°C° 0 mm 2 mps 765 mmHg 88%
    23:00 +14°C° 0 mm 2 mps 765 mmHg 88%
    Show more